User: anonymous   Login
Location: Unspecified
(0.0000°N, 0.0000°E)
Time: 14:27:25
(UTC+01:00)
Language:

Iridium 15 - Orbit

View from above orbital plane
View from above orbital plane
View from above satellite
View from above satellite

Ground track
Ground track

The orbit data is extracted from the following two-line orbital elements,

1 24869U 97034A   14351.25291414  .00000382  00000-0  12931-3 0  1965
2 24869 086.3958 043.4300 0002238 110.2123 316.5422 14.34219874913064
Epoch (UTC): 17 December 2014 06:04:11
Eccentricity: 0.0002238
inclination: 86.3958°
perigee height: 776 km
apogee height: 779 km
right ascension of ascending node: 43.4300°
argument of perigee: 110.2123°
revolutions per day: 14.34219874
mean anomaly at epoch: 316.5422°
orbit number at epoch: 91306

The dashed part of the orbit path shows where the satellite is in the earth's shadow,  

DLR